Location: *
(55.6049°S, 142.1985°W)
Time: 00:14:25
(UTC+00:00)

USA 215 - Pass Details

Date: 12 May 2021
Orbit: 1100 x 1107 km, 123.0° (Epoch: 14 June)

Event Time Altitude Azimuth Distance (km) Brightness Sun altitude
Rises 16:22:22 0° 113° (ESE) 3,959 6.9 -7.3°
Reaches altitude 10° 16:24:53 10° 111° (ESE) 2,998 6.3 -7.0°
Maximum altitude 16:31:32 72° 26° (NNE) 1,176 3.7 -6.1°
Drops below altitude 10° 16:38:07 10° 301° (WNW) 2,981 5.2 -5.2°
Sets 16:40:37 0° 299° (WNW) 3,934 5.8 -4.9°
